sat.trackr.live / text

‹ back to catalog

NIMIQ 5

NORAD 35873 · 2009-050A

PAYLOAD ACTIVE UNKNOWN

§ Identity

Operator
Country
CA
Launch date
2009-09-17
Launch site
TYMSC
Launch vehicle
Mass (kg)
RCS (m²)
94.72

Purposes: comms

External: N2YO · Heavens-Above · Gunter

§ Orbital elements

Epoch: 2026-05-25T00:59:55.604256Z

Period
1,436.10 min
Inclination
0.0497°
Eccentricity
0.0002945
Mean motion
1.00271735 rev/d
Perigee alt
35,774.2 km
Apogee alt
35,799.0 km
Semi-major
42,164.7 km
B*
0.0000e+0
RAAN
96.9324°
Arg perigee
328.6096°
Mean anomaly
119.3746°
Rev number
6,111

§ Raw data

NIMIQ 51 35873U 09050A   26145.04161579 -.00000259  00000+0  00000+0 0  99962 35873   0.0497  96.9324 0002945 328.6096 119.3746  1.00271735 61111

JSON: /api/v1/satellites/35873 · /tle

For live sub-satellite position, see the globe view (requires WebGL).

§ Visibility from observer

Set your observer location to see the next 7 days of passes ≥ 10°. The values pass through the URL so the page stays shareable.

No JS? Fill the form by hand. The geolocation button needs JavaScript.